Lava Hot Springs, Idaho, United States (83246)
Lat: 42.62N, Lon: 112.01W
Wx Zone: IDZ023
Local Info
Past Weather Observations for Today

NOTE: This archive is for the closest National Weather Service station to Lava Hot Springs. Information may differ from the station used for current weather conditions.

Click here for Long-term Archive

Time Weather Temperature Dewpoint Humidity Pressure Winds Precip Visibility
21:53
Clear
59°F / 15°C 52°F / 11°C 77% 30.06 in
(1018 mb)
E 16.1 mph
(E 26 kph)
0.00 in
(0.00 mm)
10SM
20:53
Overcast
Light Rain
61°F / 16°C 52°F / 11°C 72% 30.12 in
(1020 mb)
N 13.8 mph
(N 22 kph)
0.00 in
(0.00 mm)
10SM
19:53
Mostly Cloudy
66°F / 19°C 46°F / 8°C 49% 30.06 in
(1018 mb)
S 19.6 mph
(S 32 kph)
- 10SM
18:53
Mostly Cloudy
Cumulonimbus Clouds Observed
68°F / 20°C 48°F / 9°C 49% 30.04 in
(1017 mb)
SW 16.1 mph
(SW 26 kph)
- 10SM
17:53
Mostly Cloudy
Cumulonimbus Clouds Observed
75°F / 24°C 50°F / 10°C 41% 30.04 in
(1017 mb)
SSE 11.5 mph
(SSE 19 kph)
- 10SM
16:53
Mostly Cloudy
77°F / 25°C 48°F / 9°C 36% 30.04 in
(1017 mb)
S 9.2 mph
(S 15 kph)
- 10SM
15:53
Partly Cloudy
79°F / 26°C 48°F / 9°C 34% 30.04 in
(1017 mb)
SW 13.8 mph
(SW 22 kph)
- 10SM
14:53
Partly Cloudy
75°F / 24°C 50°F / 10°C 41% 30.04 in
(1017 mb)
SW 11.5 mph
(SW 19 kph)
- 10SM
13:53
Partly Cloudy
75°F / 24°C 52°F / 11°C 44% 30.06 in
(1018 mb)
SSE 10.4 mph
(SSE 17 kph)
- 10SM
12:53
Partly Cloudy
75°F / 24°C 54°F / 12°C 47% 30.09 in
(1019 mb)
SW 10.4 mph
(SW 17 kph)
- 10SM
11:53
Mostly Cloudy
70°F / 21°C 54°F / 12°C 57% 30.09 in
(1019 mb)
SW 5.8 mph
(SW 9 kph)
- 10SM
10:53
Mostly Cloudy
70°F / 21°C 54°F / 12°C 57% 30.09 in
(1019 mb)
Variable 5.8 mph
(Variable 9 kph)
- 10SM
09:53
Partly Cloudy
64°F / 18°C 55°F / 13°C 73% 30.09 in
(1019 mb)
Calm - 10SM
08:53
Partly Cloudy
63°F / 17°C 55°F / 13°C 77% 30.09 in
(1019 mb)
NE 3.5 mph
(NE 6 kph)
- 10SM
07:53
Clear
59°F / 15°C 57°F / 14°C 94% 30.09 in
(1019 mb)
N 4.6 mph
(N 7 kph)
- 10SM
06:53
Mostly Cloudy
57°F / 14°C 57°F / 14°C 100% 30.09 in
(1019 mb)
N 4.6 mph
(N 7 kph)
0.00 in
(0.00 mm)
10SM
05:53
Mostly Cloudy
Light Rain
57°F / 14°C 55°F / 13°C 94% 30.06 in
(1018 mb)
Calm 0.03 in
(0.76 mm)
10SM
04:53
Overcast
Light Rain
57°F / 14°C 55°F / 13°C 94% 30.06 in
(1018 mb)
S 4.6 mph
(S 7 kph)
0.01 in
(0.25 mm)
10SM
03:53
Overcast
Light Rain
57°F / 14°C 55°F / 13°C 94% 30.06 in
(1018 mb)
NE 3.5 mph
(NE 6 kph)
0.04 in
(1.02 mm)
10SM
02:53
Overcast
Light Rain
57°F / 14°C 55°F / 13°C 94% 30.06 in
(1018 mb)
S 8.1 mph
(S 13 kph)
0.03 in
(0.76 mm)
10SM
01:53
Overcast
Light Rain
57°F / 14°C 57°F / 14°C 100% 30.06 in
(1018 mb)
SSW 9.2 mph
(SSW 15 kph)
0.01 in
(0.25 mm)
10SM
00:53
Overcast
Light Rain
59°F / 15°C 55°F / 13°C 88% 30.04 in
(1017 mb)
ESE 4.6 mph
(ESE 7 kph)
0.00 in
(0.00 mm)
10SM
Time Weather Temperature Dewpoint Humidity Pressure Winds Precip Visibility


Weather for websites

WeatherForYou.com, LLC is not responsible for any damages or problems caused by this service. Current weather conditions are obtained from the closest station including government and personal stations which may have varying degrees of accuracy. Weather forecasts are derived from the NOAA NDFD. Like all things, this site belongs to Jesus Christ... He just trusts me to maintain it. If you have any questions or comments email webmaster@weatherforyou.com

Copyright © 2014, WeatherForYou.com LLC. All rights reserved.